"datetime","temp","dp","rain_mm","uv","mb"
"2013-11-04 00:00:00",9.2,9.0,0.0,0.0,982.9
"2013-11-04 00:01:00",9.2,9.0,0.2,0.0,982.8
"2013-11-04 00:02:00",9.2,9.0,0.4,0.0,982.8
"2013-11-04 00:03:00",9.2,9.1,0.4,0.0,982.8
"2013-11-04 00:04:00",9.2,9.1,0.6,0.0,982.7
"2013-11-04 00:05:00",9.3,9.1,0.6,0.0,982.7
"2013-11-04 00:06:00",9.3,9.1,0.6,0.0,982.7
"2013-11-04 00:07:00",9.3,9.1,0.8,0.0,982.7
"2013-11-04 00:08:00",9.3,9.1,0.8,0.0,982.7
"2013-11-04 00:09:00",9.3,9.1,1.0,0.0,982.7
"2013-11-04 00:10:00",9.3,9.1,1.0,0.0,982.6
"2013-11-04 00:11:00",9.3,9.2,1.0,0.0,982.6
"2013-11-04 00:12:00",9.3,9.2,1.0,0.0,982.6
"2013-11-04 00:13:00",9.3,9.2,1.0,0.0,982.6
"2013-11-04 00:14:00",9.4,9.2,1.0,0.0,982.6
"2013-11-04 00:15:00",9.4,9.2,1.0,0.0,982.6
"2013-11-04 00:16:00",9.4,9.2,1.0,0.0,982.6
"2013-11-04 00:17:00",9.4,9.2,1.0,0.0,982.6
"2013-11-04 00:18:00",9.4,9.3,1.0,0.0,982.6
"2013-11-04 00:19:00",9.4,9.3,1.0,0.0,982.7
"2013-11-04 00:20:00",9.5,9.3,1.0,0.0,982.6
"2013-11-04 00:21:00",9.5,9.4,1.0,0.0,982.6
"2013-11-04 00:22:00",9.5,9.4,1.0,0.0,982.6
"2013-11-04 00:23:00",9.5,9.4,1.0,0.0,982.6
"2013-11-04 00:24:00",9.5,9.4,1.0,0.0,982.6
"2013-11-04 00:25:00",9.5,9.4,1.0,0.0,982.5
"2013-11-04 00:26:00",9.5,9.4,1.0,0.0,982.5
"2013-11-04 00:27:00",9.6,9.4,1.0,0.0,982.5
"2013-11-04 00:28:00",9.5,9.4,1.0,0.0,982.5
"2013-11-04 00:29:00",9.6,9.4,1.0,0.0,982.4
"2013-11-04 00:30:00",9.6,9.4,1.0,0.0,982.4
"2013-11-04 00:31:00",9.6,9.5,1.0,0.0,982.4
"2013-11-04 00:32:00",9.6,9.5,1.0,0.0,982.4
"2013-11-04 00:33:00",9.7,9.7,1.0,0.0,982.5
"2013-11-04 00:34:00",9.7,9.7,1.0,0.0,982.4
"2013-11-04 00:35:00",9.7,9.7,1.0,0.0,982.5
"2013-11-04 00:36:00",9.7,9.7,1.0,0.0,982.4
"2013-11-04 00:37:00",9.8,9.8,1.0,0.0,982.4
"2013-11-04 00:38:00",9.8,9.8,1.0,0.0,982.4
"2013-11-04 00:39:00",9.8,9.8,1.0,0.0,982.4
"2013-11-04 00:40:00",9.8,9.8,1.0,0.0,982.3
"2013-11-04 00:41:00",9.8,9.8,1.0,0.0,982.4
"2013-11-04 00:42:00",9.9,9.9,1.2,0.0,982.4
"2013-11-04 00:43:00",9.9,9.9,1.2,0.0,982.3
"2013-11-04 00:44:00",9.9,9.9,1.2,0.0,982.3
"2013-11-04 00:45:00",9.9,9.9,1.2,0.0,982.3
"2013-11-04 00:46:00",9.9,9.9,1.2,0.0,982.3
"2013-11-04 00:47:00",10.0,10.0,1.2,0.0,982.3
"2013-11-04 00:48:00",10.0,10.0,1.2,0.0,982.2
"2013-11-04 00:49:00",10.0,10.0,1.2,0.0,982.2
"2013-11-04 00:50:00",10.0,10.0,1.2,0.0,982.2
"2013-11-04 00:51:00",10.0,10.0,1.2,0.0,982.2
"2013-11-04 00:52:00",10.1,10.1,1.2,0.0,982.2
"2013-11-04 00:53:00",10.1,10.1,1.2,0.0,982.2
"2013-11-04 00:54:00",10.1,10.1,1.2,0.0,982.2
"2013-11-04 00:55:00",10.1,10.1,1.2,0.0,982.1
"2013-11-04 00:56:00",10.1,10.1,1.2,0.0,982.2
"2013-11-04 00:57:00",10.1,10.1,1.2,0.0,982.1
"2013-11-04 00:58:00",10.1,10.1,1.2,0.0,982.1
"2013-11-04 00:59:00",10.2,10.2,1.2,0.0,982.1
"2013-11-04 01:00:00",10.2,10.2,1.2,0.0,982.1
"2013-11-04 01:01:00",10.2,10.2,1.2,0.0,982.1
"2013-11-04 01:02:00",10.2,10.2,1.2,0.0,982.1
"2013-11-04 01:03:00",10.2,10.2,1.2,0.0,982.1
"2013-11-04 01:04:00",10.3,10.3,1.2,0.0,982.2
"2013-11-04 01:05:00",10.3,10.3,1.2,0.0,982.2
"2013-11-04 01:06:00",10.3,10.3,1.2,0.0,982.2
"2013-11-04 01:07:00",10.3,10.3,1.2,0.0,982.1
"2013-11-04 01:08:00",10.3,10.3,1.2,0.0,982.1
"2013-11-04 01:09:00",10.3,10.3,1.2,0.0,982.1
"2013-11-04 01:10:00",10.3,10.3,1.2,0.0,982.1
"2013-11-04 01:11:00",10.4,10.4,1.2,0.0,982.1
"2013-11-04 01:12:00",10.4,10.4,1.2,0.0,982.0
"2013-11-04 01:13:00",10.4,10.4,1.2,0.0,982.0
"2013-11-04 01:14:00",10.4,10.4,1.2,0.0,982.0
"2013-11-04 01:15:00",10.4,10.4,1.2,0.0,982.0
"2013-11-04 01:16:00",10.4,10.4,1.2,0.0,982.0
"2013-11-04 01:17:00",10.4,10.4,1.2,0.0,982.0
"2013-11-04 01:18:00",10.4,10.4,1.2,0.0,982.0
"2013-11-04 01:19:00",10.4,10.4,1.2,0.0,982.0
"2013-11-04 01:20:00",10.3,10.3,1.2,0.0,981.9
"2013-11-04 01:21:00",10.3,10.3,1.2,0.0,981.9
"2013-11-04 01:22:00",10.3,10.3,1.2,0.0,981.9
"2013-11-04 01:23:00",10.3,10.3,1.2,0.0,981.9
"2013-11-04 01:24:00",10.3,10.3,1.2,0.0,981.9
"2013-11-04 01:25:00",10.3,10.3,1.2,0.0,981.8
"2013-11-04 01:26:00",10.3,10.3,1.2,0.0,981.8
"2013-11-04 01:27:00",10.3,10.3,1.2,0.0,981.7
"2013-11-04 01:28:00",10.3,10.3,1.2,0.0,981.7
"2013-11-04 01:29:00",10.3,10.3,1.2,0.0,981.8
"2013-11-04 01:30:00",10.3,10.3,1.4,0.0,981.8
"2013-11-04 01:31:00",10.3,10.3,1.4,0.0,981.7
"2013-11-04 01:32:00",10.3,10.3,1.4,0.0,981.7
"2013-11-04 01:33:00",10.3,10.3,1.4,0.0,981.7
"2013-11-04 01:34:00",10.2,10.2,1.4,0.0,981.6
"2013-11-04 01:35:00",10.2,10.2,1.4,0.0,981.7
"2013-11-04 01:36:00",10.2,10.2,1.4,0.0,981.6
"2013-11-04 01:37:00",10.2,10.2,1.4,0.0,981.6
"2013-11-04 01:38:00",10.2,10.2,1.4,0.0,981.7
"2013-11-04 01:39:00",10.1,10.1,1.4,0.0,981.7
"2013-11-04 01:40:00",10.1,10.1,1.4,0.0,981.7
"2013-11-04 01:41:00",10.1,10.1,1.4,0.0,981.7
"2013-11-04 01:42:00",10.1,9.9,1.4,0.0,981.7
"2013-11-04 01:43:00",10.0,10.0,1.4,0.0,981.7
"2013-11-04 01:44:00",10.0,10.0,1.4,0.0,981.8
"2013-11-04 01:45:00",10.0,10.0,1.4,0.0,981.7
"2013-11-04 01:46:00",9.9,9.9,1.4,0.0,981.7
"2013-11-04 01:47:00",9.8,9.8,1.4,0.0,981.7
"2013-11-04 01:48:00",9.8,9.6,1.4,0.0,981.7
"2013-11-04 01:49:00",9.7,9.5,1.4,0.0,981.6
"2013-11-04 01:50:00",9.7,9.5,1.4,0.0,981.6
"2013-11-04 01:51:00",9.6,9.5,1.4,0.0,981.5
"2013-11-04 01:52:00",9.6,9.4,1.4,0.0,981.5
"2013-11-04 01:53:00",9.5,9.4,1.4,0.0,981.5
"2013-11-04 01:54:00",9.5,9.3,1.4,0.0,981.5
"2013-11-04 01:55:00",9.4,9.3,1.4,0.0,981.6
"2013-11-04 01:56:00",9.4,9.3,1.4,0.0,981.7
"2013-11-04 01:57:00",9.4,9.2,1.4,0.0,981.7
"2013-11-04 01:58:00",9.3,9.2,1.4,0.0,981.7
"2013-11-04 01:59:00",9.3,9.2,1.4,0.0,981.6
"2013-11-04 02:00:00",9.3,9.2,1.4,0.0,981.6
"2013-11-04 02:01:00",9.3,9.1,1.4,0.0,981.6
"2013-11-04 02:02:00",9.3,9.1,1.4,0.0,981.5
"2013-11-04 02:03:00",9.2,9.1,1.4,0.0,981.6
"2013-11-04 02:04:00",9.2,9.1,1.4,0.0,981.5
"2013-11-04 02:05:00",9.2,9.0,1.4,0.0,981.5
"2013-11-04 02:06:00",9.2,9.0,1.4,0.0,981.6
"2013-11-04 02:07:00",9.1,9.0,1.4,0.0,981.6
"2013-11-04 02:08:00",9.1,8.9,1.4,0.0,981.5
"2013-11-04 02:09:00",9.1,8.9,1.4,0.0,981.5
"2013-11-04 02:10:00",9.1,8.9,1.4,0.0,981.5
"2013-11-04 02:11:00",9.0,8.9,1.6,0.0,981.5
"2013-11-04 02:12:00",9.0,8.9,1.6,0.0,981.4
"2013-11-04 02:13:00",9.0,8.9,1.6,0.0,981.4
"2013-11-04 02:14:00",9.0,8.9,1.6,0.0,981.4
"2013-11-04 02:15:00",9.0,8.9,1.6,0.0,981.4
"2013-11-04 02:16:00",9.0,8.8,1.6,0.0,981.5
"2013-11-04 02:17:00",8.9,8.8,1.6,0.0,981.5
"2013-11-04 02:18:00",8.9,8.7,1.8,0.0,981.5
"2013-11-04 02:19:00",8.9,8.7,1.8,0.0,981.4
"2013-11-04 02:20:00",8.9,8.7,1.8,0.0,981.4
"2013-11-04 02:21:00",8.8,8.7,2.0,0.0,981.4
"2013-11-04 02:22:00",8.8,8.7,2.0,0.0,981.5
"2013-11-04 02:23:00",8.8,8.6,2.0,0.0,981.5
"2013-11-04 02:24:00",8.8,8.6,2.0,0.0,981.4
"2013-11-04 02:25:00",8.8,8.6,2.0,0.0,981.4
"2013-11-04 02:26:00",8.8,8.6,2.2,0.0,981.4
"2013-11-04 02:27:00",8.7,8.6,2.2,0.0,981.5
"2013-11-04 02:28:00",8.7,8.6,2.2,0.0,981.5
"2013-11-04 02:29:00",8.7,8.5,2.2,0.0,981.4
"2013-11-04 02:30:00",8.6,8.5,2.2,0.0,981.3
"2013-11-04 02:31:00",8.6,8.4,2.2,0.0,981.3
"2013-11-04 02:32:00",8.6,8.4,2.2,0.0,981.3
"2013-11-04 02:33:00",8.5,8.4,2.2,0.0,981.4
"2013-11-04 02:34:00",8.5,8.4,2.2,0.0,981.3
"2013-11-04 02:35:00",8.5,8.4,2.2,0.0,981.4
"2013-11-04 02:36:00",8.5,8.3,2.2,0.0,981.4
"2013-11-04 02:37:00",8.4,8.3,2.4,0.0,981.4
"2013-11-04 02:38:00",8.4,8.3,2.4,0.0,981.4
"2013-11-04 02:39:00",8.4,8.1,2.4,0.0,981.4
"2013-11-04 02:40:00",8.4,8.1,2.4,0.0,981.3
"2013-11-04 02:41:00",8.3,8.0,2.4,0.0,981.4
"2013-11-04 02:42:00",8.3,8.0,2.6,0.0,981.4
"2013-11-04 02:43:00",8.3,8.0,2.6,0.0,981.3
"2013-11-04 02:44:00",8.2,7.9,2.6,0.0,981.3
"2013-11-04 02:45:00",8.2,7.9,2.6,0.0,981.3
"2013-11-04 02:46:00",8.2,7.9,2.6,0.0,981.3
"2013-11-04 02:47:00",8.2,7.9,2.6,0.0,981.3
"2013-11-04 02:48:00",8.2,7.9,2.6,0.0,981.3
"2013-11-04 02:49:00",8.2,7.9,2.6,0.0,981.3
"2013-11-04 02:50:00",8.1,7.8,2.6,0.0,981.3
"2013-11-04 02:51:00",8.1,7.8,2.6,0.0,981.3
"2013-11-04 02:52:00",8.1,7.8,2.6,0.0,981.3
"2013-11-04 02:53:00",8.1,7.8,2.6,0.0,981.4
"2013-11-04 02:54:00",8.1,7.8,2.6,0.0,981.4
"2013-11-04 02:55:00",8.0,7.7,3.4,0.0,981.4
"2013-11-04 02:56:00",8.0,7.7,3.4,0.0,981.4
"2013-11-04 02:57:00",8.0,7.7,3.4,0.0,981.5
"2013-11-04 02:58:00",7.9,7.6,3.4,0.0,981.5
"2013-11-04 02:59:00",7.9,7.6,3.4,0.0,981.5
"2013-11-04 03:00:00",7.9,7.6,3.4,0.0,981.4
"2013-11-04 03:01:00",7.8,7.5,3.4,0.0,981.5
"2013-11-04 03:02:00",7.8,7.5,3.4,0.0,981.5
"2013-11-04 03:03:00",7.8,7.5,3.6,0.0,981.5
"2013-11-04 03:04:00",7.8,7.5,3.6,0.0,981.4
"2013-11-04 03:05:00",7.8,7.5,3.6,0.0,981.4
"2013-11-04 03:06:00",7.7,7.4,3.6,0.0,981.4
"2013-11-04 03:07:00",7.7,7.4,3.6,0.0,981.4
"2013-11-04 03:08:00",7.7,7.4,3.6,0.0,981.4
"2013-11-04 03:09:00",7.6,7.3,3.6,0.0,981.4
"2013-11-04 03:10:00",7.6,7.3,3.6,0.0,981.4
"2013-11-04 03:11:00",7.6,7.3,3.6,0.0,981.4
"2013-11-04 03:12:00",7.6,7.3,3.8,0.0,981.4
"2013-11-04 03:13:00",7.5,7.2,3.8,0.0,981.5
"2013-11-04 03:14:00",7.5,7.2,3.8,0.0,981.5
"2013-11-04 03:15:00",7.4,7.1,3.8,0.0,981.5
"2013-11-04 03:16:00",7.4,7.1,3.8,0.0,981.5
"2013-11-04 03:17:00",7.4,7.1,3.8,0.0,981.5
"2013-11-04 03:18:00",7.3,7.0,3.8,0.0,981.6
"2013-11-04 03:19:00",7.3,7.0,3.8,0.0,981.6
"2013-11-04 03:20:00",7.3,7.0,3.8,0.0,981.6
"2013-11-04 03:21:00",7.2,6.9,3.8,0.0,981.6
"2013-11-04 03:22:00",7.2,6.9,3.8,0.0,981.6
"2013-11-04 03:23:00",7.1,6.7,3.8,0.0,981.6
"2013-11-04 03:24:00",7.1,6.7,3.8,0.0,981.6
"2013-11-04 03:25:00",7.1,6.6,3.8,0.0,981.6
"2013-11-04 03:26:00",7.1,6.8,3.8,0.0,981.6
"2013-11-04 03:27:00",7.1,6.8,4.0,0.0,981.6
"2013-11-04 03:28:00",7.0,6.7,4.0,0.0,981.6
"2013-11-04 03:29:00",7.0,6.7,4.0,0.0,981.5
"2013-11-04 03:30:00",7.0,6.7,4.0,0.0,981.5
"2013-11-04 03:31:00",7.0,6.7,4.0,0.0,981.6
"2013-11-04 03:32:00",7.0,6.7,4.0,0.0,981.6
"2013-11-04 03:33:00",6.9,6.6,4.0,0.0,981.6
"2013-11-04 03:34:00",6.9,6.6,4.2,0.0,981.6
"2013-11-04 03:35:00",6.9,6.6,4.2,0.0,981.7
"2013-11-04 03:36:00",6.9,6.6,4.2,0.0,981.7
"2013-11-04 03:37:00",6.8,6.5,4.2,0.0,981.7
"2013-11-04 03:38:00",6.8,6.5,4.2,0.0,981.7
"2013-11-04 03:39:00",6.8,6.5,4.2,0.0,981.6
"2013-11-04 03:40:00",6.8,6.3,4.2,0.0,981.7
"2013-11-04 03:41:00",6.8,6.3,4.2,0.0,981.7
"2013-11-04 03:42:00",6.7,6.4,4.2,0.0,981.7
"2013-11-04 03:43:00",6.7,6.4,4.2,0.0,981.7
"2013-11-04 03:44:00",6.7,6.4,4.2,0.0,981.8
"2013-11-04 03:45:00",6.7,6.4,4.2,0.0,981.8
"2013-11-04 03:46:00",6.7,6.4,4.2,0.0,981.8
"2013-11-04 03:47:00",6.6,6.4,4.2,0.0,981.9
"2013-11-04 03:48:00",6.6,6.3,4.2,0.0,981.9
"2013-11-04 03:49:00",6.6,6.3,4.2,0.0,982.0
"2013-11-04 03:50:00",6.6,6.3,4.2,0.0,982.0
"2013-11-04 03:51:00",6.6,6.3,4.2,0.0,982.0
"2013-11-04 03:52:00",6.6,6.1,4.2,0.0,982.0
"2013-11-04 03:53:00",6.5,6.1,4.2,0.0,982.0
"2013-11-04 03:54:00",6.5,6.2,4.2,0.0,982.1
"2013-11-04 03:55:00",6.5,6.2,4.2,0.0,982.1
"2013-11-04 03:56:00",6.5,6.2,4.2,0.0,982.1
"2013-11-04 03:57:00",6.5,6.2,4.2,0.0,982.1
"2013-11-04 03:58:00",6.4,6.2,4.2,0.0,982.1
"2013-11-04 03:59:00",6.4,6.2,4.2,0.0,982.1
"2013-11-04 04:00:00",6.4,6.2,4.2,0.0,982.2
"2013-11-04 04:01:00",6.4,6.2,4.4,0.0,982.2
"2013-11-04 04:02:00",6.4,6.2,4.4,0.0,982.2
"2013-11-04 04:03:00",6.4,6.2,4.4,0.0,982.3
"2013-11-04 04:04:00",6.4,6.1,4.4,0.0,982.3
"2013-11-04 04:05:00",6.4,6.1,4.4,0.0,982.3
"2013-11-04 04:06:00",6.4,6.1,4.4,0.0,982.4
"2013-11-04 04:07:00",6.3,6.0,4.4,0.0,982.4
"2013-11-04 04:08:00",6.3,6.0,4.4,0.0,982.4
"2013-11-04 04:09:00",6.3,6.0,4.4,0.0,982.5
"2013-11-04 04:10:00",6.3,6.0,4.4,0.0,982.5
"2013-11-04 04:11:00",6.3,6.0,4.4,0.0,982.5
"2013-11-04 04:12:00",6.3,6.0,4.4,0.0,982.6
"2013-11-04 04:13:00",6.3,6.0,4.4,0.0,982.5
"2013-11-04 04:14:00",6.3,6.0,4.4,0.0,982.6
"2013-11-04 04:15:00",6.3,6.0,4.6,0.0,982.7
"2013-11-04 04:16:00",6.2,5.8,4.6,0.0,982.8
"2013-11-04 04:17:00",6.2,5.8,4.6,0.0,982.8
"2013-11-04 04:18:00",6.2,5.8,4.6,0.0,982.8
"2013-11-04 04:19:00",6.2,5.9,4.6,0.0,982.8
"2013-11-04 04:20:00",6.2,5.9,4.6,0.0,982.9
"2013-11-04 04:21:00",6.2,5.7,4.6,0.0,982.9
"2013-11-04 04:22:00",6.2,5.7,4.6,0.0,983.0
"2013-11-04 04:23:00",6.2,5.9,4.6,0.0,983.0
"2013-11-04 04:24:00",6.1,5.8,4.6,0.0,983.1
"2013-11-04 04:25:00",6.1,5.8,4.6,0.0,983.1
"2013-11-04 04:26:00",6.1,5.8,4.8,0.0,983.2
"2013-11-04 04:27:00",6.1,5.8,4.8,0.0,983.2
"2013-11-04 04:28:00",6.1,5.8,4.8,0.0,983.2
"2013-11-04 04:29:00",6.1,5.8,4.8,0.0,983.3
"2013-11-04 04:30:00",6.1,5.8,4.8,0.0,983.3
"2013-11-04 04:31:00",6.1,5.8,4.8,0.0,983.3
"2013-11-04 04:32:00",6.0,5.7,4.8,0.0,983.4
"2013-11-04 04:33:00",6.0,5.7,4.8,0.0,983.4
"2013-11-04 04:34:00",6.0,5.7,5.0,0.0,983.5
"2013-11-04 04:35:00",6.0,5.7,5.0,0.0,983.5
"2013-11-04 04:36:00",5.9,5.7,5.0,0.0,983.5
"2013-11-04 04:37:00",5.9,5.5,5.0,0.0,983.5
"2013-11-04 04:38:00",5.9,5.5,5.0,0.0,983.5
"2013-11-04 04:39:00",5.9,5.5,5.0,0.0,983.5
"2013-11-04 04:40:00",5.9,5.5,5.0,0.0,983.6
"2013-11-04 04:41:00",5.9,5.4,5.0,0.0,983.6
"2013-11-04 04:42:00",5.9,5.4,5.0,0.0,983.7
"2013-11-04 04:43:00",5.9,5.4,5.0,0.0,983.7
"2013-11-04 04:44:00",5.8,5.4,5.2,0.0,983.7
"2013-11-04 04:45:00",5.8,5.4,5.2,0.0,983.7
"2013-11-04 04:46:00",5.8,5.4,5.2,0.0,983.8
"2013-11-04 04:47:00",5.8,5.4,5.4,0.0,983.8
"2013-11-04 04:48:00",5.8,5.4,5.4,0.0,983.8
"2013-11-04 04:49:00",5.8,5.4,5.4,0.0,983.8
"2013-11-04 04:50:00",5.8,5.3,5.4,0.0,983.8
"2013-11-04 04:51:00",5.8,5.5,5.4,0.0,983.9
"2013-11-04 04:52:00",5.8,5.5,5.4,0.0,983.8
"2013-11-04 04:53:00",5.8,5.5,5.6,0.0,983.9
"2013-11-04 04:54:00",5.7,5.4,5.6,0.0,983.9
"2013-11-04 04:55:00",5.7,5.4,5.6,0.0,984.0
"2013-11-04 04:56:00",5.7,5.4,5.6,0.0,984.0
"2013-11-04 04:57:00",5.7,5.4,5.8,0.0,984.0
"2013-11-04 04:58:00",5.7,5.4,5.8,0.0,984.0
"2013-11-04 04:59:00",5.7,5.4,5.8,0.0,984.1
"2013-11-04 05:00:00",5.7,5.4,5.8,0.0,984.0
"2013-11-04 05:01:00",5.7,5.4,5.8,0.0,984.1
"2013-11-04 05:02:00",5.7,5.4,5.8,0.0,984.1
"2013-11-04 05:03:00",5.6,5.4,5.8,0.0,984.1
"2013-11-04 05:04:00",5.6,5.3,5.8,0.0,984.2
"2013-11-04 05:05:00",5.6,5.3,5.8,0.0,984.2
"2013-11-04 05:06:00",5.6,5.3,5.8,0.0,984.2
"2013-11-04 05:07:00",5.6,5.3,5.8,0.0,984.3
"2013-11-04 05:08:00",5.6,5.3,5.8,0.0,984.3
"2013-11-04 05:09:00",5.6,5.3,5.8,0.0,984.3
"2013-11-04 05:10:00",5.6,5.3,5.8,0.0,984.4
"2013-11-04 05:11:00",5.6,5.3,5.8,0.0,984.4
"2013-11-04 05:12:00",5.6,5.3,6.0,0.0,984.4
"2013-11-04 05:13:00",5.6,5.3,6.0,0.0,984.4
"2013-11-04 05:14:00",5.6,5.3,6.0,0.0,984.5
"2013-11-04 05:15:00",5.6,5.3,6.0,0.0,984.4
"2013-11-04 05:16:00",5.6,5.3,6.0,0.0,984.5
"2013-11-04 05:17:00",5.6,5.3,6.0,0.0,984.5
"2013-11-04 05:18:00",5.6,5.3,6.2,0.0,984.5
"2013-11-04 05:19:00",5.6,5.3,6.2,0.0,984.5
"2013-11-04 05:20:00",5.5,5.2,6.2,0.0,984.5
"2013-11-04 05:21:00",5.5,5.2,6.2,0.0,984.5
"2013-11-04 05:22:00",5.5,5.2,6.2,0.0,984.6
"2013-11-04 05:23:00",5.5,5.2,6.2,0.0,984.6
"2013-11-04 05:24:00",5.5,5.2,6.2,0.0,984.7
"2013-11-04 05:25:00",5.5,5.2,6.2,0.0,984.7
"2013-11-04 05:26:00",5.5,5.2,6.2,0.0,984.7
"2013-11-04 05:27:00",5.5,5.2,6.2,0.0,984.8
"2013-11-04 05:28:00",5.5,5.2,6.2,0.0,984.8
"2013-11-04 05:29:00",5.4,5.2,6.2,0.0,984.8
"2013-11-04 05:30:00",5.4,5.2,6.2,0.0,984.9
"2013-11-04 05:31:00",5.4,5.2,6.2,0.0,984.9
"2013-11-04 05:32:00",5.4,5.2,6.2,0.0,984.9
"2013-11-04 05:33:00",5.4,5.2,6.4,0.0,985.0
"2013-11-04 05:34:00",5.4,5.1,6.4,0.0,985.0
"2013-11-04 05:35:00",5.4,5.1,6.4,0.0,985.0
"2013-11-04 05:36:00",5.4,5.1,6.4,0.0,985.1
"2013-11-04 05:37:00",5.4,5.1,6.4,0.0,985.1
"2013-11-04 05:38:00",5.4,5.1,6.4,0.0,985.1
"2013-11-04 05:39:00",5.4,5.1,6.4,0.0,985.1
"2013-11-04 05:40:00",5.4,5.1,6.4,0.0,985.2
"2013-11-04 05:41:00",5.4,5.1,6.4,0.0,985.1
"2013-11-04 05:42:00",5.4,5.1,6.4,0.0,985.2
"2013-11-04 05:43:00",5.4,5.1,6.4,0.0,985.2
"2013-11-04 05:44:00",5.4,5.1,6.4,0.0,985.2
"2013-11-04 05:45:00",5.4,5.1,6.4,0.0,985.2
"2013-11-04 05:46:00",5.4,5.1,6.4,0.0,985.3
"2013-11-04 05:47:00",5.4,5.1,6.4,0.0,985.3
"2013-11-04 05:48:00",5.4,5.1,6.4,0.0,985.4
"2013-11-04 05:49:00",5.4,5.1,6.4,0.0,985.4
"2013-11-04 05:50:00",5.4,5.1,6.4,0.0,985.4
"2013-11-04 05:51:00",5.4,5.1,6.4,0.0,985.4
"2013-11-04 05:52:00",5.3,5.0,6.4,0.0,985.4
"2013-11-04 05:53:00",5.3,5.0,6.4,0.0,985.4
"2013-11-04 05:54:00",5.3,5.0,6.4,0.0,985.4
"2013-11-04 05:55:00",5.3,5.0,6.4,0.0,985.4
"2013-11-04 05:56:00",5.3,5.0,6.4,0.0,985.5
"2013-11-04 05:57:00",5.3,5.0,6.4,0.0,985.5
"2013-11-04 05:58:00",5.3,5.0,6.4,0.0,985.5
"2013-11-04 05:59:00",5.3,5.0,6.4,0.0,985.5
"2013-11-04 06:00:00",5.3,5.0,6.4,0.0,985.6
"2013-11-04 06:01:00",5.3,5.0,6.6,0.0,985.6
"2013-11-04 06:02:00",5.3,5.0,6.6,0.0,985.6
"2013-11-04 06:03:00",5.3,5.0,6.6,0.0,985.6
"2013-11-04 06:04:00",5.3,5.0,6.6,0.0,985.6
"2013-11-04 06:05:00",5.3,5.0,6.6,0.0,985.6
"2013-11-04 06:06:00",5.3,5.0,6.6,0.0,985.6
"2013-11-04 06:07:00",5.3,5.0,6.6,0.0,985.7
"2013-11-04 06:08:00",5.3,5.0,6.6,0.0,985.7
"2013-11-04 06:09:00",5.3,5.0,6.6,0.0,985.7
"2013-11-04 06:10:00",5.3,5.0,6.6,0.0,985.8
"2013-11-04 06:11:00",5.3,5.0,6.6,0.0,985.8
"2013-11-04 06:12:00",5.3,5.0,6.6,0.0,985.9
"2013-11-04 06:13:00",5.3,5.0,6.6,0.0,985.9
"2013-11-04 06:14:00",5.3,5.0,6.6,0.0,985.9
"2013-11-04 06:15:00",5.2,5.0,6.6,0.0,986.0
"2013-11-04 06:16:00",5.2,4.9,6.6,0.0,986.0
"2013-11-04 06:17:00",5.2,5.0,6.6,0.0,986.0
"2013-11-04 06:18:00",5.2,4.9,6.6,0.0,986.0
"2013-11-04 06:19:00",5.2,4.9,6.6,0.0,986.0
"2013-11-04 06:20:00",5.2,4.9,6.6,0.0,986.0
"2013-11-04 06:21:00",5.2,4.9,6.6,0.0,986.0
"2013-11-04 06:22:00",5.2,4.9,6.6,0.0,986.1
"2013-11-04 06:23:00",5.2,4.9,6.6,0.0,986.1
"2013-11-04 06:24:00",5.2,4.9,6.6,0.0,986.2
"2013-11-04 06:25:00",5.2,4.9,6.6,0.0,986.2
"2013-11-04 06:26:00",5.2,4.9,6.6,0.0,986.3
"2013-11-04 06:27:00",5.2,4.9,6.6,0.0,986.4
"2013-11-04 06:28:00",5.2,4.9,6.6,0.0,986.4
"2013-11-04 06:29:00",5.2,4.9,6.6,0.0,986.5
"2013-11-04 06:30:00",5.2,4.9,6.6,0.0,986.6
"2013-11-04 06:31:00",5.2,4.9,6.6,0.0,986.6
"2013-11-04 06:32:00",5.2,4.9,6.6,0.0,986.6
"2013-11-04 06:33:00",5.2,4.9,6.6,0.0,986.7
"2013-11-04 06:34:00",5.2,4.9,6.6,0.0,986.7
"2013-11-04 06:35:00",5.2,4.9,6.6,0.0,986.7
"2013-11-04 06:36:00",5.2,4.9,6.6,0.0,986.7
"2013-11-04 06:37:00",5.2,4.9,6.6,0.0,986.8
"2013-11-04 06:38:00",5.2,4.9,6.6,0.0,986.8
"2013-11-04 06:39:00",5.2,4.9,6.6,0.0,986.9
"2013-11-04 06:40:00",5.2,4.9,6.6,0.0,986.9
"2013-11-04 06:41:00",5.2,4.9,6.6,0.0,986.9
"2013-11-04 06:42:00",5.2,4.9,6.6,0.0,987.0
"2013-11-04 06:43:00",5.2,4.9,6.6,0.0,986.9
"2013-11-04 06:44:00",5.2,4.9,6.6,0.0,986.9
"2013-11-04 06:45:00",5.2,4.9,6.6,0.0,987.0
"2013-11-04 06:46:00",5.2,4.9,6.6,0.0,987.0
"2013-11-04 06:47:00",5.2,4.9,6.6,0.0,986.9
"2013-11-04 06:48:00",5.2,4.9,6.6,0.0,986.9
"2013-11-04 06:49:00",5.2,4.9,6.6,0.0,987.0
"2013-11-04 06:50:00",5.2,4.9,6.6,0.0,987.0
"2013-11-04 06:51:00",5.2,4.9,6.6,0.0,987.0
"2013-11-04 06:52:00",5.2,4.9,6.6,0.0,987.1
"2013-11-04 06:53:00",5.2,4.9,6.6,0.0,987.0
"2013-11-04 06:54:00",5.2,4.9,6.6,0.0,987.1
"2013-11-04 06:55:00",5.2,4.9,6.6,0.0,987.1
"2013-11-04 06:56:00",5.2,4.9,6.6,0.0,987.2
"2013-11-04 06:57:00",5.2,4.9,6.6,0.0,987.2
"2013-11-04 06:58:00",5.2,4.9,6.6,0.0,987.3
"2013-11-04 06:59:00",5.2,4.9,6.6,0.0,987.3
"2013-11-04 07:00:00",5.2,4.9,6.6,0.0,987.3
"2013-11-04 07:01:00",5.2,4.9,6.6,0.0,987.4
"2013-11-04 07:02:00",5.2,4.9,6.6,0.0,987.4
"2013-11-04 07:03:00",5.2,4.9,6.6,0.0,987.5
"2013-11-04 07:04:00",5.2,4.9,6.6,0.0,987.5
"2013-11-04 07:05:00",5.2,4.9,6.6,0.0,987.5
"2013-11-04 07:06:00",5.2,4.9,6.6,0.0,987.6
"2013-11-04 07:07:00",5.2,4.9,6.6,0.0,987.6
"2013-11-04 07:08:00",5.2,4.9,6.6,0.0,987.7
"2013-11-04 07:09:00",5.2,4.9,6.6,0.0,987.7
"2013-11-04 07:10:00",5.2,4.9,6.6,0.0,987.8
"2013-11-04 07:11:00",5.2,4.9,6.6,0.0,987.8
"2013-11-04 07:12:00",5.2,4.9,6.6,0.0,987.8
"2013-11-04 07:13:00",5.2,4.9,6.6,0.0,987.9
"2013-11-04 07:14:00",5.3,5.0,6.6,0.0,987.9
"2013-11-04 07:15:00",5.3,5.0,6.6,0.0,987.9
"2013-11-04 07:16:00",5.3,5.0,6.6,0.0,988.0
"2013-11-04 07:17:00",5.3,5.0,6.6,0.0,988.0
"2013-11-04 07:18:00",5.3,5.0,6.6,0.0,988.1
"2013-11-04 07:19:00",5.3,5.0,6.6,0.0,988.1
"2013-11-04 07:20:00",5.3,5.0,6.6,0.0,988.1
"2013-11-04 07:21:00",5.3,5.0,6.6,0.0,988.1
"2013-11-04 07:22:00",5.3,5.0,6.6,0.0,988.2
"2013-11-04 07:23:00",5.3,5.0,6.6,0.0,988.2
"2013-11-04 07:24:00",5.3,5.0,6.6,0.0,988.2
"2013-11-04 07:25:00",5.3,5.0,6.6,0.0,988.3
"2013-11-04 07:26:00",5.3,5.0,6.6,0.0,988.3
"2013-11-04 07:27:00",5.3,5.0,6.6,0.0,988.3
"2013-11-04 07:28:00",5.3,5.0,6.6,0.0,988.4
"2013-11-04 07:29:00",5.3,5.0,6.6,0.0,988.4
"2013-11-04 07:30:00",5.3,5.0,6.6,0.0,988.4
"2013-11-04 07:31:00",5.3,5.0,6.6,0.0,988.5
"2013-11-04 07:32:00",5.4,5.1,6.6,0.0,988.6
"2013-11-04 07:33:00",5.4,5.1,6.6,0.0,988.6
"2013-11-04 07:34:00",5.4,5.1,6.6,0.0,988.6
"2013-11-04 07:35:00",5.4,5.1,6.6,0.0,988.7
"2013-11-04 07:36:00",5.4,5.1,6.6,0.0,988.6
"2013-11-04 07:37:00",5.4,5.1,6.6,0.0,988.7
"2013-11-04 07:38:00",5.4,5.2,6.6,0.0,988.7
"2013-11-04 07:39:00",5.4,5.2,6.6,0.0,988.7
"2013-11-04 07:40:00",5.4,5.2,6.6,0.0,988.7
"2013-11-04 07:41:00",5.4,5.2,6.6,0.0,988.8
"2013-11-04 07:42:00",5.4,5.2,6.6,0.0,988.8
"2013-11-04 07:43:00",5.5,5.2,6.6,0.0,988.9
"2013-11-04 07:44:00",5.5,5.2,6.6,0.0,988.9
"2013-11-04 07:45:00",5.5,5.2,6.6,0.0,989.0
"2013-11-04 07:46:00",5.5,5.2,6.6,0.0,989.0
"2013-11-04 07:47:00",5.5,5.2,6.6,0.0,989.0
"2013-11-04 07:48:00",5.5,5.2,6.6,0.0,989.0
"2013-11-04 07:49:00",5.5,5.4,6.6,0.0,989.0
"2013-11-04 07:50:00",5.5,5.2,6.6,0.0,989.0
"2013-11-04 07:51:00",5.5,5.2,6.6,0.0,989.1
"2013-11-04 07:52:00",5.5,5.4,6.6,0.0,989.1
"2013-11-04 07:53:00",5.5,5.4,6.6,0.0,989.1
"2013-11-04 07:54:00",5.5,5.4,6.6,0.0,989.1
"2013-11-04 07:55:00",5.6,5.4,6.6,0.0,989.1
"2013-11-04 07:56:00",5.6,5.4,6.6,0.0,989.1
"2013-11-04 07:57:00",5.6,5.4,6.6,0.0,989.1
"2013-11-04 07:58:00",5.6,5.3,6.6,0.0,989.1
"2013-11-04 07:59:00",5.6,5.4,6.6,0.0,989.2
"2013-11-04 08:00:00",5.6,5.4,6.6,0.0,989.2
"2013-11-04 08:01:00",5.6,5.3,6.6,0.0,989.2
"2013-11-04 08:02:00",5.6,5.3,6.6,0.0,989.2
"2013-11-04 08:03:00",5.6,5.3,6.6,0.0,989.2
"2013-11-04 08:04:00",5.6,5.3,6.6,0.0,989.3
"2013-11-04 08:05:00",5.6,5.3,6.6,0.0,989.3
"2013-11-04 08:06:00",5.6,5.3,6.6,0.0,989.4
"2013-11-04 08:07:00",5.6,5.3,6.6,0.0,989.4
"2013-11-04 08:08:00",5.6,5.3,6.6,0.0,989.4
"2013-11-04 08:09:00",5.6,5.3,6.6,0.0,989.4
"2013-11-04 08:10:00",5.6,5.3,6.6,0.0,989.5
"2013-11-04 08:11:00",5.6,5.3,6.6,0.0,989.5
"2013-11-04 08:12:00",5.6,5.3,6.6,0.0,989.6
"2013-11-04 08:13:00",5.6,5.3,6.6,0.0,989.6
"2013-11-04 08:14:00",5.5,5.3,6.6,0.0,989.7
"2013-11-04 08:15:00",5.5,5.2,6.6,0.0,989.7
"2013-11-04 08:16:00",5.5,5.2,6.6,0.0,989.7
"2013-11-04 08:17:00",5.5,5.2,6.6,0.0,989.7
"2013-11-04 08:18:00",5.5,5.2,6.6,0.0,989.7
"2013-11-04 08:19:00",5.5,5.2,6.6,0.0,989.8
"2013-11-04 08:20:00",5.4,5.2,6.6,0.0,989.8
"2013-11-04 08:21:00",5.4,5.2,6.6,0.0,989.8
"2013-11-04 08:22:00",5.4,5.2,6.6,0.0,989.9
"2013-11-04 08:23:00",5.4,5.2,6.6,0.0,989.9
"2013-11-04 08:24:00",5.4,5.1,6.6,0.0,989.9
"2013-11-04 08:25:00",5.4,5.1,6.6,0.0,990.0
"2013-11-04 08:26:00",5.4,5.1,6.6,0.0,990.1
"2013-11-04 08:27:00",5.4,5.1,6.6,0.0,990.1
"2013-11-04 08:28:00",5.4,5.1,6.6,0.0,990.1
"2013-11-04 08:29:00",5.3,5.0,6.6,0.0,990.2
"2013-11-04 08:30:00",5.3,5.0,6.6,0.0,990.3
"2013-11-04 08:31:00",5.3,5.0,6.6,0.0,990.3
"2013-11-04 08:32:00",5.3,5.0,6.6,0.0,990.3
"2013-11-04 08:33:00",5.3,5.0,6.6,0.0,990.4
"2013-11-04 08:34:00",5.3,5.0,6.6,0.0,990.4
"2013-11-04 08:35:00",5.3,5.0,6.6,0.0,990.4
"2013-11-04 08:36:00",5.3,5.0,6.6,0.0,990.5
"2013-11-04 08:37:00",5.2,4.9,6.6,0.0,990.5
"2013-11-04 08:38:00",5.2,4.9,6.6,0.0,990.5
"2013-11-04 08:39:00",5.2,4.9,6.6,0.0,990.5
"2013-11-04 08:40:00",5.2,4.9,6.6,0.0,990.7
"2013-11-04 08:41:00",5.2,4.9,6.6,0.0,990.7
"2013-11-04 08:42:00",5.2,4.9,6.6,0.0,990.7
"2013-11-04 08:43:00",5.2,4.9,6.6,0.0,990.8
"2013-11-04 08:44:00",5.2,4.9,6.6,0.0,990.8
"2013-11-04 08:45:00",5.2,4.9,6.6,0.0,990.8
"2013-11-04 08:46:00",5.2,4.9,6.6,0.0,990.8
"2013-11-04 08:47:00",5.2,4.9,6.6,0.0,990.9
"2013-11-04 08:48:00",5.2,4.9,6.6,0.0,990.9
"2013-11-04 08:49:00",5.1,4.8,6.6,0.0,990.9
"2013-11-04 08:50:00",5.1,4.8,6.6,0.0,991.0
"2013-11-04 08:51:00",5.1,4.8,6.6,0.0,990.9
"2013-11-04 08:52:00",5.1,4.8,6.6,0.0,991.0
"2013-11-04 08:53:00",5.0,4.8,6.6,0.0,991.0
"2013-11-04 08:54:00",5.0,4.7,6.6,0.0,991.1
"2013-11-04 08:55:00",5.0,4.7,6.6,0.0,991.1
"2013-11-04 08:56:00",5.0,4.7,6.6,0.0,991.1
"2013-11-04 08:57:00",5.0,4.7,6.6,0.0,991.1
"2013-11-04 08:58:00",5.0,4.7,6.6,0.0,991.1
"2013-11-04 08:59:00",5.1,4.8,6.6,0.0,991.1
"2013-11-04 09:00:00",5.1,4.8,6.6,0.0,991.2